Date String (YYYY-MM-DD hh:mm:ss) UTC,Instrument flags,absolute air pressure of the measurement (hPa),sample flow rate (lpm),inlet stack bypass flow (lpm),air temperature of the measurement (°C),ambient temperature measured by the external sensor (°C),aerosol sample conditioner tube jacket temperature (°C),OPC LED temperature (°C),internal box temperature (°C),relative humidity of the measurement (%),span deviation,mass concentration of particles derived from Lorenz-Mie calculation of OPC scattering (μg/m³),mass concentration of particles derived from Lorenz-Mie calculation of OPC scattering (μg/m³),mass concentration of particles derived from Lorenz-Mie calculation of OPC scattering (μg/m³)
DateTimeUTC,F1_M11,P_M11,Q1_M11,Q2_M11,T1_M11,T2_M11,T3_M11,T4_M11,T5_M11,U1_M11,ZSPAN_M11,X0_M11,X2_M11,X1_M11
2024-04-09 19:00:00,SystemResetWarning,0827.7,5.00,000.00,022.7,022.3,000.0,030.9,024.5,014.9,0000.0,0011.84,0004.45,0003.76
2024-04-09 19:01:00,SystemResetWarning,0827.6,4.99,000.00,022.7,022.3,000.0,030.9,024.5,014.9,0000.0,0011.65,0004.46,0003.77
2024-04-09 19:02:00,SystemResetWarning,0827.5,5.00,000.00,022.7,022.2,000.0,031.0,024.5,015.1,0000.0,0011.41,0004.51,0003.78
2024-04-09 19:03:00,SystemResetWarning,0827.5,5.00,000.00,022.7,022.2,000.0,031.0,024.6,015.1,0000.0,0011.11,0004.50,0003.80
2024-04-09 19:04:00,SystemResetWarning,0827.5,5.01,000.00,022.8,022.2,000.0,031.0,024.6,015.2,0000.0,0011.68,0004.54,0003.82
2024-04-09 19:05:00,SystemResetWarning,0827.5,5.01,000.00,022.8,022.2,000.0,031.0,024.6,015.2,0000.0,0011.92,0004.58,0003.83
2024-04-09 19:06:00,SystemResetWarning,0827.6,5.00,000.00,022.8,022.3,000.0,031.0,024.6,015.2,0000.0,0012.30,0004.58,0003.85
2024-04-09 19:07:00,SystemResetWarning,0827.7,5.00,000.00,022.8,022.3,000.0,031.0,024.6,015.2,0000.0,0012.74,0004.58,0003.87
2024-04-09 19:08:00,SystemResetWarning,0827.4,4.99,000.00,022.8,022.3,000.0,031.0,024.6,015.3,0000.0,0012.57,0004.61,0003.90
2024-04-09 19:09:00,SystemResetWarning,0827.4,4.99,000.00,022.8,022.3,000.0,031.1,024.6,014.9,0000.0,0011.68,0004.62,0003.92
2024-04-09 19:10:00,SystemResetWarning,0827.4,5.01,000.00,022.8,022.3,000.0,031.1,024.6,015.1,0000.0,0010.84,0004.64,0003.95
2024-04-09 19:11:00,SystemResetWarning,0827.4,5.01,000.00,022.8,022.3,000.0,031.1,024.6,015.5,0000.0,0011.21,0004.64,0003.96
2024-04-09 19:12:00,SystemResetWarning,0827.4,5.00,000.00,022.9,022.4,000.0,031.1,024.7,014.7,0000.0,0011.27,0004.67,0003.97
2024-04-09 19:13:00,SystemResetWarning,0827.4,4.99,000.00,022.9,022.4,000.0,031.1,024.7,014.8,0000.0,0011.65,0004.67,0003.96
2024-04-09 19:14:00,SystemResetWarning,0827.4,5.00,000.00,022.9,022.4,000.0,031.1,024.7,014.4,0000.0,0011.76,0004.69,0003.96
2024-04-09 19:15:00,SystemResetWarning,0827.3,5.01,000.00,022.9,022.4,000.0,031.2,024.7,014.5,0000.0,0011.71,0004.71,0003.97
2024-04-09 19:16:00,SystemResetWarning,0827.4,5.01,000.00,022.9,022.4,000.0,031.2,024.7,014.8,0000.0,0011.73,0004.71,0003.97
2024-04-09 19:17:00,SystemResetWarning,0827.4,5.00,000.00,022.9,022.4,000.0,031.2,024.8,015.0,0000.0,0011.58,0004.72,0003.99
2024-04-09 19:18:00,SystemResetWarning,0827.4,4.99,000.00,022.9,022.4,000.0,031.2,024.8,014.6,0000.0,0011.10,0004.76,0004.00
2024-04-09 19:19:00,SystemResetWarning,0827.4,5.00,000.00,023.0,022.4,000.0,031.2,024.8,014.5,0000.0,0010.93,0004.76,0004.00
2024-04-09 19:20:00,SystemResetWarning,0827.4,5.00,000.00,023.0,022.4,000.0,031.2,024.8,014.5,0000.0,0011.75,0004.76,0004.00
2024-04-09 19:21:00,SystemResetWarning,0827.4,4.99,000.00,023.0,022.4,000.0,031.2,024.8,014.5,0000.0,0012.03,0004.76,0004.01
2024-04-09 19:22:00,SystemResetWarning,0827.4,5.00,000.00,023.0,022.4,000.0,031.3,024.8,014.6,0000.0,0011.70,0004.79,0004.03
2024-04-09 19:23:00,SystemResetWarning,0827.4,5.01,000.00,023.0,022.4,000.0,031.3,024.8,014.2,0000.0,0011.78,0004.81,0004.06
2024-04-09 19:24:00,SystemResetWarning,0827.3,5.00,000.00,023.0,022.5,000.0,031.3,024.8,014.1,0000.0,0011.72,0004.84,0004.10
2024-04-09 19:25:00,SystemResetWarning,0827.3,4.98,000.00,023.0,022.5,000.0,031.3,024.8,014.1,0000.0,0012.00,0004.85,0004.12
2024-04-09 19:26:00,SystemResetWarning,0827.3,5.00,000.00,023.0,022.5,000.0,031.3,024.9,014.0,0000.0,0011.61,0004.83,0004.13
2024-04-09 19:27:00,SystemResetWarning,0827.3,5.02,000.00,023.1,022.5,000.0,031.3,024.9,014.4,0000.0,0011.66,0004.79,0004.14
2024-04-09 19:28:00,SystemResetWarning,0827.2,5.00,000.00,023.1,022.5,000.0,031.3,024.9,014.6,0000.0,0011.55,0004.78,0004.16
2024-04-09 19:29:00,SystemResetWarning,0827.2,4.99,000.00,023.1,022.5,000.0,031.4,024.9,014.5,0000.0,0010.91,0004.78,0004.19
2024-04-09 19:30:00,SystemResetWarning,0827.2,5.00,000.00,023.1,022.5,000.0,031.4,024.9,014.5,0000.0,0011.02,0004.84,0004.22
2024-04-09 19:31:00,SystemResetWarning,0827.1,5.00,000.00,023.1,022.6,000.0,031.4,024.9,014.7,0000.0,0010.96,0004.88,0004.25
2024-04-09 19:32:00,SystemResetWarning,0827.2,4.99,000.00,023.1,022.6,000.0,031.4,024.9,014.1,0000.0,0012.41,0004.89,0004.25
2024-04-09 19:33:00,SystemResetWarning,0827.1,5.00,000.00,023.2,022.6,000.0,031.4,024.9,014.2,0000.0,0012.52,0004.86,0004.25
2024-04-09 19:34:00,SystemResetWarning,0827.2,5.01,000.00,023.2,022.6,000.0,031.4,025.0,014.5,0000.0,0012.80,0004.86,0004.23
2024-04-09 19:35:00,SystemResetWarning,0827.2,5.00,000.00,023.2,022.6,000.0,031.4,025.0,014.8,0000.0,0012.61,0004.84,0004.21
2024-04-09 19:36:00,SystemResetWarning,0827.2,5.00,000.00,023.2,022.7,000.0,031.5,025.0,015.2,0000.0,0012.73,0004.81,0004.20
2024-04-09 19:37:00,SystemResetWarning,0827.1,5.01,000.00,023.2,022.7,000.0,031.5,025.0,015.0,0000.0,0013.24,0004.86,0004.20
2024-04-09 19:38:00,SystemResetWarning,0827.2,4.99,000.00,023.3,022.7,000.0,031.5,025.0,014.8,0000.0,0013.34,0004.88,0004.21
2024-04-09 19:39:00,SystemResetWarning,0827.1,4.99,000.00,023.3,022.8,000.0,031.5,025.0,014.7,0000.0,0013.79,0004.90,0004.22
2024-04-09 19:40:00,SystemResetWarning,0827.1,5.00,000.00,023.3,022.8,000.0,031.5,025.1,014.9,0000.0,0015.08,0004.87,0004.20
2024-04-09 19:41:00,SystemResetWarning,0827.1,5.01,000.00,023.3,022.8,000.0,031.5,025.1,014.7,0000.0,0015.41,0004.82,0004.18
2024-04-09 19:42:00,SystemResetWarning,0827.1,5.02,000.00,023.3,022.8,000.0,031.6,025.1,014.4,0000.0,0016.25,0004.78,0004.15
2024-04-09 19:43:00,SystemResetWarning,0827.1,5.00,000.00,023.3,022.8,000.0,031.6,025.1,014.3,0000.0,0015.72,0004.79,0004.16
2024-04-09 19:44:00,SystemResetWarning,0827.1,4.99,000.00,023.3,022.9,000.0,031.6,025.1,014.6,0000.0,0015.93,0004.81,0004.15
2024-04-09 19:45:00,SystemResetWarning,0827.1,4.99,000.00,023.4,022.9,000.0,031.6,025.1,014.5,0000.0,0015.73,0004.76,0004.15
2024-04-09 19:46:00,SystemResetWarning,0827.1,5.01,000.00,023.4,022.9,000.0,031.6,025.2,014.4,0000.0,0015.89,0004.80,0004.16
2024-04-09 19:47:00,SystemResetWarning,0827.1,5.00,000.00,023.4,022.9,000.0,031.6,025.2,014.2,0000.0,0015.42,0004.81,0004.17
2024-04-09 19:48:00,SystemResetWarning,0827.1,5.01,000.00,023.4,022.9,000.0,031.6,025.2,014.0,0000.0,0015.90,0004.77,0004.18
2024-04-09 19:49:00,SystemResetWarning,0827.1,5.00,000.00,023.4,023.0,000.0,031.7,025.2,013.8,0000.0,0016.85,0004.81,0004.20
2024-04-09 19:50:00,SystemResetWarning,0827.1,5.00,000.00,023.4,023.0,000.0,031.7,025.2,013.7,0000.0,0016.36,0004.85,0004.22
2024-04-09 19:51:00,SystemResetWarning,0827.1,4.99,000.00,023.5,023.0,000.0,031.7,025.3,013.8,0000.0,0016.38,0004.90,0004.25
2024-04-09 19:52:00,SystemResetWarning,0827.1,5.00,000.00,023.5,023.0,000.0,031.7,025.3,014.0,0000.0,0015.77,0004.94,0004.27
2024-04-09 19:53:00,SystemResetWarning,0827.1,5.00,000.00,023.5,023.1,000.0,031.7,025.3,013.9,0000.0,0015.09,0004.95,0004.30
2024-04-09 19:54:00,SystemResetWarning,0827.0,5.01,000.00,023.5,023.1,000.0,031.7,025.3,013.7,0000.0,0014.09,0004.95,0004.31
2024-04-09 19:55:00,SystemResetWarning,0827.0,5.01,000.00,023.5,023.1,000.0,031.8,025.4,013.9,0000.0,0013.82,0004.98,0004.33
2024-04-09 19:56:00,SystemResetWarning,0827.0,5.00,000.00,023.6,023.1,000.0,031.8,025.4,014.0,0000.0,0013.82,0005.05,0004.34
2024-04-09 19:57:00,SystemResetWarning,0827.0,5.00,000.00,023.6,023.1,000.0,031.8,025.4,014.4,0000.0,0013.88,0005.07,0004.33
2024-04-09 19:58:00,SystemResetWarning,0826.9,5.00,000.00,023.6,023.1,000.0,031.8,025.4,014.5,0000.0,0014.53,0005.07,0004.31
2024-04-09 19:59:00,SystemResetWarning,0827.0,4.99,000.00,023.6,023.1,000.0,031.9,025.5,014.0,0000.0,0014.77,0005.11,0004.30
